Regional Weather Roundup
Issued by NWS

Home | Current Version | Previous Version | Graphics & Text | Print | Product List | Glossary On
Versions: 1 2 3 4 5 6 7 8 9 10 11 12 13 14 15 16 17 18 19 20 21 22 23 24 25 26 27 28 29 30 31 32 33 34 35 36 37 38 39 40 41 42 43 44 45 46 47 48 49 50
048
ASUS43 KFSD 211510
RWRSD

WEATHER ROUNDUP FOR SOUTH DAKOTA
NATIONAL WEATHER SERVICE SIOUX FALLS SD
1000 AM CDT THU MAY 21 2015

NOTE: "FAIR" INDICATES FEW OR NO CLOUDS BELOW 12,000 FEET WITH NO
SIGNIFICANT WEATHER AND/OR OBSTRUCTIONS TO VISIBILITY.


SDZ001>005-009-010-012>017-211600-
NORTHWEST AND NORTH CENTRAL SOUTH DAKOTA

CITY           SKY/WX    TMP DP  RH WIND       PRES   REMARKS
BUFFALO          N/A     55  36  48 VRB3      30.18F
FAITH            N/A     57  33  40 NW8       30.25S
MOBRIDGE       SUNNY     61  35  37 W8        30.20F
$$

SDZ012>016-024>037-041>051-057-063-072>074-211600-
SOUTHWEST AND SOUTH CENTRAL SOUTH DAKOTA

CITY           SKY/WX    TMP DP  RH WIND       PRES   REMARKS
RAPID CTY ARPT SUNNY     52  34  50 S8        30.26S
PIERRE         SUNNY     56  39  53 W10       30.25S
CUSTER         MOSUNNY   42  25  50 VRB3      30.24F
PHILIP         SUNNY     55  40  56 W9        30.28S
PINE RIDGE     SUNNY     48  36  63 S6        30.27F
SPEARFISH      FAIR      52  25  35 E10       30.24F
WINNER         FAIR      57  39  51 W12       30.28S
$$

SDZ004>011-016>023-039-040-211600-
NORTHEAST SOUTH DAKOTA

CITY           SKY/WX    TMP DP  RH WIND       PRES   REMARKS
ABERDEEN       SUNNY     63  39  41 NW10      30.18S
WATERTOWN      SUNNY     59  38  45 NW14      30.16S
BROOKINGS      SUNNY     61  34  36 NW22G30   30.17S
SISSETON         N/A     61  36  39 N13       30.14R
$$

SDZ017-020-022-023-036>040-048>070-211600-
SOUTHEAST SOUTH DAKOTA

CITY           SKY/WX    TMP DP  RH WIND       PRES   REMARKS
SIOUX FALLS    MOSUNNY   61  37  41 NW17G24   30.18F
HURON          SUNNY     64  36  35 NW10G21   30.20F
CHAMBERLAIN    SUNNY     55  41  58 W10       30.25F
MITCHELL       SUNNY     62  39  42 W15       30.23S
YANKTON        SUNNY     55  43  62 W10       30.23F
$$

ABBREVIATIONS USED IN REMARKS
   TC - TEMPERATURE IN CELSIUS
  WCI - WIND CHILL INDEX
   HX - HEAT INDEX
  VSB - VISIBILITY




USA.gov is the U.S. government's official web portal to all federal, state and local government web resources and services.